STARLINK-2033, 47650

Orbit data source: Space-Track

STARLINK-2033, 47650 is a payload satellite owned by SpaceX/Seattle (US) in LEO that was launched on Tue, 16 Feb 2021 UTC via an FALCON 9 launch vehicle from the Air Force Eastern Test Range (AFETR). Payload-class satellites include a variety of spacecraft equipped with specific instruments for various scientific and technological missions. These include communications satellites like Starlink; space stations such as the ISS; scientific satellites like the Hubble; Earth observation satellites from companies like Planet Labs, Umbra, and HawkEye 360; GPS; miniature CubeSats for education and research; and military/defense satellites.

Loading next visibility...
Identifier
47650, 2021-012AG
Orbit
LEO
Country
Flag of USUS
Related business
Manufacturer
SpaceX/Seattle
Mission
Operational Commercial Communications
Bus & Motor
STARLINK, Unknown motor
Mass
260 kg wet, ~248 kg dry
Launch date (UTC)
2021-02-16 (5 years ago)
Launch vehicle
FALCON 9
Launch site
Air Force Eastern Test Range (AFETR)
Object type
Payload
Rocket body
Debris
Shape & HBR
Box + 1 Pan, 4.4 m
Radar Cross Section
13.562 m², Large (>1 m²)

Expand to show TLE details & history
Last TLE update: 23 hours ago

TLE from 23 hours ago
0 STARLINK-2033
1 47650U 21012AG  25241.15101589  .00004053  00000-0  29077-3 0  9992
2 47650  53.0526 195.9573 0001527  94.6870 265.4293 15.06407708251235
Epoch: 2025-08-29T03:37Z
TLE epoch observation values (Epoch: 2025-08-29T03:37:27.772Z)
Latitude
-0.00007°
Longitude
163.98774°
Altitude
548.151 km
Speed
7.589 km/s
True Right ascension
13h 03m 49s
True Declination
0° 00' 00"
Sunlit
Object was in daylight at epoch
Visualization orbit readout
Latitude
Unknown
Longitude
Unknown
Altitude
Unknown
Speed
Unknown
Apparent Right ascension
Unknown
Apparent Declination
Unknown
Sunlit
N/A
Visualization observer readout
Local Sidereal Time
17:59:20
Azimuth
Unknown
Elevation
Unknown
Doppler factor
Unknown
Orbital elements
Apogee altitude
548.516 km
Perigee altitude
546.401 km
Semi-major axis
6,925.596 km
Eccentricity
0.00015
Inclination
53.0526°
RAAN
195.9573°
Arg. of periapsis
94.687°
True anomaly
265.41186°
Mean anomaly
265.4293°
Eccentric anomaly
265.42058°
Mean motion
3.7658 °/min
Orbital period
95.6 mins
BSTAR
0.00029077
Loading maneuver chart data...
Computing Atmospheric mass density...

Documentation

Showing up to 5 results
|